Home   Weather   Whitehorse   Past weeks

Flag for Canada Past Weather in Whitehorse, Yukon, Canada — Yesterday and Last 2 Weeks

Now
37 °F

Partly sunny.


Feels Like: 31 °F
Forecast: 25 / 43 °F
Wind: 9 mph from North

Location: Whitehorse

Current Time: Sep 30, 2016 at 1:31:54 PM

Latest Report: Sep 30, 2016 at 1:00 PM


Visibility: 40 mi

Pressure: 30.61 "Hg (28.28 "Hg at 640m altitude)

Humidity: 56%

Dew Point: 23 °F

Location of WhitehorseLocation

Past Weather in Whitehorse — Graph

°F

Whitehorse Temperature Yesterday

Maximum temperature yesterday: 45 °F (at 2:00 PM)
Minimum temperature yesterday: 27 °F (at 5:00 AM)
Average temperature yesterday: 35 °F

High & Low Weather Summary for the Past Weeks

 TemperatureHumidityPressure
High59 °F (Sep 15, 4:00 PM)100% (Sep 19, 1:00 AM)30.66 "Hg (Sep 19, 1:00 AM)
Low27 °F (Sep 29, 5:00 AM)33% (Sep 23, 2:00 PM)29.39 "Hg (Sep 22, 2:00 PM)
Average43 °F71%29.94 "Hg
* Reported Sep 15 12:23 PM — Sep 30 12:00 PM, Whitehorse, Weather by CustomWeather, © 2016

Note: Actual official high and low records may vary slightly from our data, if they occured in-between our weather recording intervals... More about our weather records

Advertising

Whitehorse Weather History for the Previous 24 Hours

Scroll right to see more
 ConditionsComfort  
Time TempWeatherWind HumidityBarometerVisibility
12:00 PM
Fri, Sep 30
37 °FPartly sunny.8 mph56%30.62 "Hg40 mi
11:00 AM34 °FPartly sunny.8 mph70%30.63 "Hg40 mi
10:00 AM32 °FPartly sunny.6 mph69%30.65 "Hg40 mi
9:00 AM28 °FPartly sunny.5 mph74%30.66 "Hg40 mi
8:00 AM28 °FPassing clouds.6 mph80%30.65 "Hg40 mi
7:00 AM28 °FPassing clouds.6 mph74%30.64 "Hg40 mi
6:00 AM27 °FClear.5 mph80%30.64 "Hg15 mi
5:00 AM28 °FClear.6 mph74%30.63 "Hg15 mi
4:00 AM30 °FPassing clouds.3 mph69%30.63 "Hg15 mi
3:00 AM32 °FPassing clouds.5 mph64%30.63 "Hg15 mi
2:00 AM34 °FPassing clouds.6 mph65%30.61 "Hg15 mi
1:00 AM36 °FPassing clouds.9 mph60%30.60 "Hg15 mi
12:00 AM36 °FPassing clouds.9 mph65%30.58 "Hg15 mi
11:00 PM
Thu, Sep 29
36 °FPartly cloudy.5 mph65%30.58 "Hg15 mi
10:00 PM36 °FPartly cloudy.3 mph65%30.58 "Hg15 mi
9:00 PM37 °FPassing clouds.9 mph56%30.56 "Hg15 mi
8:00 PM37 °FPartly cloudy.3 mph75%30.55 "Hg25 mi
7:00 PM37 °FScattered showers. Broken clouds.14 mph75%30.55 "Hg25 mi
6:00 PM45 °FScattered showers. Partly sunny.8 mph42%30.49 "Hg40 mi
5:00 PM45 °FPartly sunny.6 mph42%30.50 "Hg40 mi
4:00 PM45 °FScattered showers. Partly sunny.10 mph37%30.49 "Hg40 mi
3:00 PM45 °FSprinkles. Partly sunny.3 mph42%30.49 "Hg40 mi
2:00 PM45 °FPartly sunny.8 mph42%30.50 "Hg40 mi
1:00 PM43 °FPartly sunny.6 mph49%30.52 "Hg40 mi
Weather by CustomWeather, © 2016

See weather overviewHow to use our weather pages